Regional Weather Roundup
Issued by NWS

Home | Current Version | Previous Version | Text Only | Print | Product List | Glossary On
Versions: 1 2 3 4 5 6 7 8 9 10 11 12 13 14 15 16 17 18 19 20 21 22 23 24 25 26 27 28 29 30 31 32 33 34 35 36 37 38 39 40 41 42 43 44 45 46 47 48 49 50
087
ASUS44 KLIX 280512
RWRLA
LOUISIANA WEATHER ROUNDUP
NATIONAL WEATHER SERVICE NEW ORLEANS LA
1200 AM CDT SAT MAR 28 2015

NOTE: "FAIR" INDICATES FEW OR NO CLOUDS BELOW 12,000 FEET WITH NO
      SIGNIFICANT WEATHER AND/OR OBSTRUCTIONS TO VISIBILITY.
      SKY/WX - SKY CONDITION AND SIGNIFICANT WEATHER.
      TMP - AIR TEMPERATURE.    DP   - DEWPOINT TEMPERATURE.
      RH  - RELATIVE HUMIDITY.  PRES - PRESSURE.
      HX  - HEAT INDEX.         WCI  - WIND CHILL INDEX.

*  THESE STATIONS ARE NOT NWS OR FAA STATIONS AND ARE NOT UNDER
   NWS QUALITY CONTROL.

LAZ040-048-061>063-065-066-069-280600-
SOUTHEAST LOUISIANA

CITY           SKY/WX    TMP DP  RH WIND       PRES   REMARKS
N.O. AUDUBON     N/A     59 N/A N/A MISG        N/A
N.O. INTL ARPT FAIR      58  39  49 NE12      30.16R
N.O. LAKEFRONT CLEAR     60  40  47 NE18      30.16R
SLIDELL        CLEAR     50  40  68 N7        30.15R
BATON ROUGE    CLEAR     53  41  63 NE6       30.17R
BOOTHVILLE     CLEAR     59  48  67 N3        30.15R
BELLE CHASSE   CLEAR     53  39  59 NE6       30.16R
BOGALUSA*        N/A     47  40  75 N3        30.17R
GALLIANO*      CLEAR     58  54  86 CALM      30.14S
NEW ROADS*     FAIR      53  41  64 CALM      30.18R
GONZALES*      FAIR      55  41  58 NE6       30.16R
HAMMOND*       PTCLDY    50  39  66 CALM      30.19R
HOUMA*         CLEAR     56  54  92 W5        30.14R
PORT FOURCHON* CLEAR     64  52  63 W10G17    30.18R

$$

LAZ041-044-053-054-280600-
SOUTHWEST LOUISIANA

CITY           SKY/WX    TMP DP  RH WIND       PRES   REMARKS
LAKE CHARLES   CLEAR     53  45  74 CALM      30.17R
LAFAYETTE      CLEAR     57  42  57 NE12      30.16R
PATTERSON      CLEAR     57  52  82 NW5       30.16R
SALT POINT       N/A     64  50  60 VRB7      30.14R
NEW IBERIA     CLEAR     57  41  55 N3        30.16R
CHENAULT AIRPK FAIR      57  42  56 CALM      30.17R

$$

LAZ027-028-280600-
CENTRAL LOUISIANA

CITY           SKY/WX    TMP DP  RH WIND       PRES   REMARKS
FORT POLK      CLEAR     55  38  54 N7        30.16S
ALEXANDRIA INT CLEAR     50  43  77 CALM      30.17R
ALEXANDRIA     CLEAR     52  40  63 E5        30.19R

$$

LAZ001-002-280600-
NORTHWEST LOUISIANA

CITY           SKY/WX    TMP DP  RH WIND       PRES   REMARKS
SHREVEPORT     CLEAR     51  37  58 N3        30.18R
BARKSDALE AFB  CLEAR     52  33  47 CALM      30.18R
DTN SHREVEPORT CLEAR     48  34  58 CALM      30.19R

$$

LAZ014-016-280600-
NORTHEAST LOUISIANA

CITY           SKY/WX    TMP DP  RH WIND       PRES   REMARKS
MONROE         PTCLDY    46  40  79 CALM      30.20R
TALLULAH       LGT RAIN  48  38  68 NE9       30.19R

$$




USA.gov is the U.S. government's official web portal to all federal, state and local government web resources and services.